• In Hungary
  • List of Countries
  • For 7 days
  • Water Temperature
  • Satellite Maps
  • Weather Map
  • News
  • Weather Widgets
  • user-avatar
    Login

    Hourly Weather Micherdowka

    Today, 20 September, Thursday

    Time Temperature Precipitation Wind Pressure Humidity
    00:00 +15°C° 0 mm 2 mps 725 mmHg 74%
    01:00 +15°C° 0 mm 1 mps 725 mmHg 74%
    02:00 +15°C° 0 mm 1 mps 725 mmHg 75%
    03:00 +15°C° 0 mm 1 mps 725 mmHg 76%
    04:00 +15°C° 0 mm 1 mps 725 mmHg 76%
    05:00 +15°C° 0 mm 1 mps 725 mmHg 74%
    06:00 +16°C° 0 mm 1 mps 725 mmHg 72%
    07:00 +17°C° 0 mm 2 mps 726 mmHg 65%
    08:00 +19°C° 0 mm 2 mps 726 mmHg 58%
    09:00 +21°C° 0 mm 2 mps 726 mmHg 51%
    10:00 +25°C° 0 mm 2 mps 726 mmHg 44%
    11:00 +25°C° 0 mm 1 mps 726 mmHg 41%
    12:00 +26°C° 0 mm 1 mps 726 mmHg 38%
    13:00 +27°C° 0 mm 1 mps 726 mmHg 35%
    14:00 +27°C° 0 mm 1 mps 725 mmHg 37%
    15:00 +27°C° 0 mm 1 mps 725 mmHg 39%
    16:00 +24°C° 0 mm 0 mps 725 mmHg 41%
    17:00 +24°C° 0 mm 1 mps 725 mmHg 46%
    18:00 +22°C° 0 mm 1 mps 724 mmHg 51%
    19:00 +20°C° 0 mm 1 mps 724 mmHg 56%
    20:00 +19°C° 0 mm 1 mps 724 mmHg 58%
    21:00 +18°C° 0 mm 1 mps 724 mmHg 61%
    22:00 +18°C° 0 mm 1 mps 724 mmHg 63%
    23:00 +16°C° 0 mm 1 mps 724 mmHg 64%

    Tomorrow, 21 September, Friday

    Time Temperature Precipitation Wind Pressure Humidity
    00:00 +16°C° 0 mm 1 mps 724 mmHg 65%
    01:00 +16°C° 0 mm 1 mps 723 mmHg 66%
    02:00 +16°C° 0 mm 2 mps 723 mmHg 67%
    03:00 +15°C° 0 mm 2 mps 723 mmHg 67%
    04:00 +15°C° 0 mm 2 mps 723 mmHg 68%
    05:00 +16°C° 0 mm 2 mps 723 mmHg 67%
    06:00 +17°C° 0 mm 2 mps 723 mmHg 66%
    07:00 +17°C° 0 mm 2 mps 723 mmHg 65%
    08:00 +20°C° 0 mm 2 mps 722 mmHg 57%
    09:00 +22°C° 0 mm 3 mps 722 mmHg 48%
    10:00 +26°C° 0 mm 4 mps 722 mmHg 40%
    11:00 +26°C° 0 mm 4 mps 722 mmHg 39%
    12:00 +27°C° 0 mm 5 mps 722 mmHg 38%
    13:00 +27°C° 0 mm 5 mps 721 mmHg 37%
    14:00 +27°C° 0 mm 5 mps 721 mmHg 39%
    15:00 +26°C° 0 mm 5 mps 720 mmHg 42%
    16:00 +26°C° 0 mm 4 mps 720 mmHg 44%
    17:00 +23°C° 0 mm 4 mps 720 mmHg 49%
    18:00 +21°C° 0 mm 3 mps 719 mmHg 54%
    19:00 +19°C° 0 mm 3 mps 719 mmHg 59%
    20:00 +19°C° 0 mm 3 mps 719 mmHg 58%
    21:00 +19°C° 0 mm 3 mps 719 mmHg 58%
    22:00 +18°C° 0 mm 3 mps 719 mmHg 57%
    23:00 +18°C° 0.3 mm 4 mps 720 mmHg 63%

    Day after tomorrow, 22 September, Saturday

    Time Temperature Precipitation Wind Pressure Humidity
    00:00 +18°C° 0.3 mm 4 mps 720 mmHg 69%
    01:00 +17°C° 0.3 mm 4 mps 721 mmHg 75%
    02:00 +15°C° 0.2 mm 4 mps 722 mmHg 78%
    03:00 +14°C° 0.2 mm 3 mps 722 mmHg 81%
    04:00 +13°C° 0.2 mm 3 mps 723 mmHg 84%
    05:00 +13°C° 0.2 mm 2 mps 723 mmHg 83%
    06:00 +13°C° 0.2 mm 2 mps 724 mmHg 81%
    07:00 +13°C° 0.2 mm 1 mps 724 mmHg 79%
    08:00 +13°C° 0.2 mm 2 mps 724 mmHg 75%
    09:00 +13°C° 0.2 mm 2 mps 725 mmHg 72%
    10:00 +13°C° 0.2 mm 2 mps 725 mmHg 68%
    11:00 +13°C° 0 mm 3 mps 725 mmHg 61%
    12:00 +16°C° 0 mm 3 mps 725 mmHg 54%
    13:00 +17°C° 0 mm 4 mps 725 mmHg 47%
    14:00 +17°C° 0 mm 4 mps 725 mmHg 46%
    15:00 +15°C° 0 mm 4 mps 725 mmHg 46%
    16:00 +15°C° 0 mm 5 mps 724 mmHg 45%
    17:00 +14°C° 0 mm 4 mps 724 mmHg 50%
    18:00 +13°C° 0 mm 3 mps 725 mmHg 54%
    19:00 +12°C° 0 mm 3 mps 725 mmHg 59%
    20:00 +11°C° 0 mm 3 mps 725 mmHg 61%
    21:00 +11°C° 0 mm 3 mps 725 mmHg 64%
    22:00 +10°C° 0 mm 3 mps 725 mmHg 67%
    23:00 +10°C° 0 mm 3 mps 725 mmHg 69%

    23 September, Sunday

    Time Temperature Precipitation Wind Pressure Humidity
    00:00 +9°C° 0 mm 3 mps 725 mmHg 71%
    01:00 +9°C° 0 mm 2 mps 725 mmHg 73%
    02:00 +9°C° 0 mm 2 mps 725 mmHg 76%
    03:00 +8°C° 0 mm 2 mps 725 mmHg 78%
    04:00 +8°C° 0 mm 2 mps 725 mmHg 80%
    05:00 +9°C° 0 mm 3 mps 724 mmHg 77%
    06:00 +9°C° 0 mm 3 mps 724 mmHg 74%
    07:00 +10°C° 0 mm 3 mps 724 mmHg 70%
    08:00 +12°C° 0 mm 4 mps 724 mmHg 64%
    09:00 +13°C° 0 mm 4 mps 724 mmHg 58%
    10:00 +14°C° 0 mm 5 mps 724 mmHg 52%
    11:00 +15°C° 0 mm 5 mps 723 mmHg 53%
    12:00 +15°C° 0 mm 6 mps 722 mmHg 54%
    13:00 +16°C° 0 mm 6 mps 722 mmHg 55%
    14:00 +15°C° 0 mm 6 mps 721 mmHg 58%
    15:00 +15°C° 0 mm 6 mps 720 mmHg 61%
    16:00 +15°C° 0 mm 6 mps 719 mmHg 64%
    17:00 +14°C° 1.1 mm 6 mps 719 mmHg 70%
    18:00 +14°C° 1.1 mm 6 mps 718 mmHg 76%
    19:00 +13°C° 1.1 mm 6 mps 718 mmHg 81%
    20:00 +14°C° 0.1 mm 6 mps 717 mmHg 79%
    21:00 +14°C° 0.1 mm 6 mps 716 mmHg 76%
    22:00 +14°C° 0.1 mm 6 mps 716 mmHg 73%
    23:00 +15°C° 0.6 mm 6 mps 715 mmHg 75%

    24 September, Monday

    Time Temperature Precipitation Wind Pressure Humidity
    00:00 +15°C° 0.6 mm 6 mps 714 mmHg 78%
    01:00 +16°C° 0.6 mm 6 mps 713 mmHg 80%
    02:00 +15°C° 2.4 mm 6 mps 713 mmHg 83%
    03:00 +15°C° 2.4 mm 7 mps 712 mmHg 85%
    04:00 +15°C° 2.4 mm 7 mps 712 mmHg 88%
    05:00 +14°C° 1.4 mm 7 mps 713 mmHg 86%
    06:00 +11°C° 1.4 mm 8 mps 714 mmHg 85%
    07:00 +10°C° 1.4 mm 9 mps 715 mmHg 83%
    08:00 +9°C° 0.1 mm 8 mps 717 mmHg 81%
    09:00 +7°C° 0.1 mm 8 mps 718 mmHg 79%
    10:00 +7°C° 0.1 mm 8 mps 719 mmHg 78%
    11:00 +7°C° 0.1 mm 8 mps 720 mmHg 73%
    12:00 +9°C° 0.1 mm 8 mps 721 mmHg 68%
    13:00 +9°C° 0.1 mm 8 mps 723 mmHg 63%
    14:00 +9°C° 0.1 mm 8 mps 723 mmHg 61%
    15:00 +9°C° 0.1 mm 7 mps 724 mmHg 59%
    16:00 +10°C° 0.1 mm 7 mps 724 mmHg 57%
    17:00 +8°C° 0 mm 6 mps 725 mmHg 62%
    18:00 +7°C° 0 mm 5 mps 726 mmHg 67%
    19:00 +6°C° 0 mm 4 mps 726 mmHg 71%
    20:00 +6°C° 0.1 mm 4 mps 727 mmHg 74%
    21:00 +6°C° 0.1 mm 4 mps 727 mmHg 77%
    22:00 +7°C° 0.1 mm 3 mps 728 mmHg 80%
    23:00 +5°C° 0.1 mm 3 mps 728 mmHg 82%

    25 September, Tuesday

    Time Temperature Precipitation Wind Pressure Humidity
    00:00 +5°C° 0.1 mm 3 mps 729 mmHg 83%
    01:00 +5°C° 0.1 mm 2 mps 729 mmHg 85%
    02:00 +5°C° 0 mm 2 mps 729 mmHg 85%
    03:00 +3°C° 0 mm 3 mps 730 mmHg 85%
    04:00 +3°C° 0 mm 3 mps 730 mmHg 86%
    05:00 +3°C° 0 mm 3 mps 730 mmHg 84%
    06:00 +4°C° 0 mm 3 mps 731 mmHg 82%
    07:00 +4°C° 0 mm 3 mps 731 mmHg 80%
    08:00 +5°C° 0 mm 3 mps 732 mmHg 76%
    09:00 +6°C° 0 mm 4 mps 732 mmHg 71%
    10:00 +7°C° 0 mm 4 mps 732 mmHg 67%
    11:00 +8°C° 0.1 mm 4 mps 732 mmHg 64%
    12:00 +9°C° 0.1 mm 5 mps 731 mmHg 61%
    13:00 +9°C° 0.1 mm 5 mps 731 mmHg 58%
    14:00 +10°C° 0.1 mm 5 mps 731 mmHg 57%
    15:00 +10°C° 0.1 mm 5 mps 730 mmHg 57%
    16:00 +10°C° 0.1 mm 5 mps 730 mmHg 57%
    17:00 +9°C° 0.1 mm 5 mps 730 mmHg 62%
    18:00 +8°C° 0.1 mm 4 mps 730 mmHg 67%
    19:00 +7°C° 0.1 mm 4 mps 730 mmHg 73%
    20:00 +7°C° 0.8 mm 4 mps 730 mmHg 77%
    21:00 +6°C° 0.8 mm 4 mps 730 mmHg 81%
    22:00 +6°C° 0.8 mm 4 mps 730 mmHg 85%
    23:00 +6°C° 1.5 mm 4 mps 730 mmHg 88%
    Show more